EW1914 Weather Reports


time (UTC)temp
C
wind
direction
speed
KPH
gust
KPH
rain 1hr
cm
rain 24hr
cm
rain mn
cm
humidity
%
barometer
mb
20260506204959 18 0.0 0.0 0.00 0.00 0.00 77 1020.0
20260506203959 17 0.0 0.0 0.00 0.00 0.00 75 1020.1
20260506203000 17 0.0 0.0 0.00 0.00 0.00 79 1020.0
20260506201958 17 0.0 0.0 0.00 0.00 0.00 79 1020.0
20260506200959 17 0.0 0.0 0.00 0.00 0.00 78 1020.1
20260506193958 16 0.0 0.0 0.00 0.00 0.00 80 1020.5
20260506193000 16 0.0 0.0 0.00 0.00 0.00 79 1020.5
20260506191957 16 0.0 0.0 0.00 0.00 0.00 80 1020.5
20260506190000 16 0.0 0.0 0.00 0.00 0.00 82 1020.3
20260506184958 16 0.0 0.0 0.00 0.00 0.00 83 1020.3
20260506183958 16 0.0 0.0 0.00 0.00 0.00 83 1020.4
20260506182959 15 0.0 0.0 0.00 0.00 0.00 83 1020.3
20260506181957 15 0.0 0.0 0.00 0.00 0.00 82 1020.3
20260506180959 15 0.0 0.0 0.00 0.00 0.00 82 1020.3
20260506180002 15 0.0 0.0 0.00 0.00 0.00 81 1020.3
20260506174959 15 0.0 0.0 0.00 0.00 0.00 83 1020.3
20260506173959 15 0.0 0.0 0.00 0.00 0.00 83 1020.3
20260506173000 15 0.0 0.0 0.00 0.00 0.00 83 1020.2
20260506171959 15 0.0 0.0 0.00 0.00 0.00 83 1020.0
20260506170958 15 0.0 0.0 0.00 0.00 0.00 83 1020.1
20260506170001 14 0.0 0.0 0.00 0.00 0.00 84 1020.1
20260506164957 14 0.0 0.0 0.00 0.00 0.00 84 1020.2
20260506163957 14 0.0 0.0 0.00 0.00 0.00 85 1020.1
20260506162959 14 0.0 0.0 0.00 0.00 0.00 85 1020.1
20260506161957 14 0.0 0.0 0.00 0.00 0.00 85 1020.1
20260506160958 13 0.0 0.0 0.00 0.00 0.00 85 1019.9
20260506160000 13 0.0 0.0 0.00 0.00 0.00 85 1020.0
20260506153957 13 0.0 0.0 0.00 0.00 0.00 86 1019.4
20260506151958 13 0.0 0.0 0.00 0.00 0.00 85 1020.0
20260506150958 13 0.0 0.0 0.00 0.00 0.00 86 1020.2
20260506150006 13 0.0 0.0 0.00 0.00 0.00 86 1020.1
20260506144959 13 0.0 0.0 0.00 0.00 0.00 86 1020.1
20260506135959 13 0.0 0.0 0.00 0.00 0.00 86 1019.3
20260506134959 13 0.0 0.0 0.00 0.00 0.00 87 1019.2
20260506133958 13 0.0 0.0 0.00 0.00 0.00 87 1019.1
20260506132959 13 0.0 0.0 0.00 0.00 0.00 87 1019.0
20260506131958 13 0.0 0.0 0.00 0.00 0.00 86 1019.0
20260506130958 13 0.0 0.0 0.00 0.00 0.00 86 1018.8
20260506125959 13 0.0 0.0 0.00 0.00 0.00 86 1018.7
20260506124958 13 0.0 0.0 0.00 0.00 0.00 86 1018.6
20260506123958 13 0.0 0.0 0.00 0.00 0.00 86 1018.5
20260506122959 13 0.0 0.0 0.00 0.00 0.00 86 1018.5
20260506121957 13 0.0 0.0 0.00 0.00 0.00 86 1018.6
20260506114959 14 0.0 0.0 0.00 0.00 0.00 85 1018.5
20260506113959 14 0.0 0.0 0.00 0.00 0.00 85 1018.3
20260506112959 14 0.0 0.0 0.00 0.00 0.00 85 1018.3
20260506111958 14 0.0 0.0 0.00 0.00 0.00 85 1018.2
20260506110958 14 0.0 0.0 0.00 0.00 0.00 84 1018.1
20260506105959 14 0.0 0.0 0.00 0.00 0.00 84 1018.0
20260506104957 14 0.0 0.0 0.00 0.00 0.00 84 1017.8
20260506103958 14 0.0 0.0 0.00 0.00 0.00 84 1017.7
20260506102958 14 0.0 0.0 0.00 0.00 0.00 84 1017.6
20260506101959 14 0.0 0.0 0.00 0.00 0.00 83 1017.5
20260506095959 14 0.0 0.0 0.00 0.00 0.00 83 1017.3
20260506092958 14 0.0 0.0 0.00 0.00 0.00 83 1017.1
20260506091956 15 0.0 0.0 0.00 0.00 0.00 83 1017.1
20260506090957 15 0.0 0.0 0.00 0.00 0.00 82 1017.2
20260506085958 15 0.0 0.0 0.00 0.00 0.00 82 1017.1
20260506084957 15 0.0 0.0 0.00 0.00 0.00 82 1017.1
20260506081959 15 0.0 0.0 0.00 0.00 0.00 82 1017.0
20260506080958 15 0.0 0.0 0.00 0.00 0.00 82 1017.0
20260506071959 15 0.0 0.0 0.00 0.00 0.00 83 1016.6
20260506061959 15 0.0 0.0 0.00 0.00 0.00 85 1016.3
20260506060958 15 0.0 0.0 0.00 0.00 0.00 85 1016.1
20260506051006 15 0.0 0.0 0.00 0.00 0.00 85 1015.8
20260506044959 15 0.0 0.0 0.00 0.00 0.00 84 1015.7
20260506043958 15 0.0 0.0 0.00 0.00 0.00 83 1015.6
20260506043001 15 0.0 0.0 0.00 0.00 0.00 83 1015.4
20260506042000 15 0.0 0.0 0.00 0.00 0.00 82 1015.4
20260506041000 16 0.0 0.0 0.00 0.00 0.00 82 1015.3
20260506040000 16 0.0 0.0 0.00 0.00 0.00 81 1015.2
20260506034959 16 0.0 0.0 0.00 0.00 0.00 80 1015.0
20260506034000 16 0.0 0.0 0.00 0.00 0.00 79 1014.9
20260506031959 17 0.0 0.0 0.00 0.00 0.00 76 1014.7
20260506030958 17 0.0 0.0 0.00 0.00 0.00 75 1014.6
20260506030000 17 0.0 0.0 0.00 0.00 0.00 75 1014.6
20260506024959 17 0.0 0.0 0.00 0.00 0.00 74 1014.6
20260506021959 18 0.0 0.0 0.00 0.00 0.00 74 1014.4
20260506020959 18 0.0 0.0 0.00 0.00 0.00 73 1014.5
20260506015000 18 0.0 0.0 0.00 0.00 0.00 73 1014.4
20260506013958 18 0.0 0.0 0.00 0.00 0.00 72 1014.5
20260506013000 18 0.0 0.0 0.00 0.00 0.00 71 1014.5
20260506011958 18 0.0 0.0 0.00 0.00 0.00 71 1014.5
20260506011000 18 0.0 0.0 0.00 0.00 0.00 72 1014.5
20260506010001 18 0.0 0.0 0.00 0.00 0.00 73 1014.4
20260506004959 17 0.0 0.0 0.00 0.00 0.00 73 1014.5
20260506003958 17 0.0 0.0 0.00 0.00 0.00 74 1014.7
20260506003001 17 0.0 0.0 0.00 0.00 0.00 74 1014.6
20260506001000 17 0.0 0.0 0.00 0.00 0.00 73 1014.8
20260506000000 17 0.0 0.0 0.00 0.00 0.00 73 1014.8
20260505234959 17 0.0 0.0 0.00 0.00 0.00 72 1014.9
20260505232959 17 0.0 0.0 0.00 0.00 0.00 73 1014.9
20260505230959 17 0.0 0.0 0.00 0.00 0.00 74 1015.1
20260505230004 17 0.0 0.0 0.00 0.00 0.00 75 1015.2
20260505224958 17 0.0 0.0 0.00 0.00 0.00 75 1015.2
20260505223001 17 0.0 0.0 0.00 0.00 0.00 76 1015.4
20260505221959 17 0.0 0.0 0.00 0.00 0.00 76 1015.5
20260505220001 17 0.0 0.0 0.00 0.00 0.00 78 1015.5
20260505215000 17 0.0 0.0 0.00 0.00 0.00 77 1015.5
20260505214000 17 0.0 0.0 0.00 0.00 0.00 78 1015.6
20260505211959 16 0.0 0.0 0.00 0.00 0.00 78 1015.6
20260505210958 16 0.0 0.0 0.00 0.00 0.00 77 1015.7